owner,sensor,date,latitude,longitude,vertical_datum,mass_concentration_of_oxygen_in_sea_water,qcFlag 
SCCF RECON,ioos:station:SCCF:56:1,2017-09-01T00:00:00Z,26.4645,-82.1044,1.49,9.6,1111122 
SCCF RECON,ioos:station:SCCF:56:1,2017-09-01T01:00:00Z,26.4645,-82.1044,1.586,9.12,1111122 
SCCF RECON,ioos:station:SCCF:56:1,2017-09-01T02:00:00Z,26.4645,-82.1044,1.661,8.01,1111122 
SCCF RECON,ioos:station:SCCF:56:1,2017-09-01T03:00:00Z,26.4645,-82.1044,1.74,7.64,1111122 
SCCF RECON,ioos:station:SCCF:56:1,2017-09-01T04:00:00Z,26.4645,-82.1044,1.765,8.01,1111122 
SCCF RECON,ioos:station:SCCF:56:1,2017-09-01T05:00:00Z,26.4645,-82.1044,1.76,7.51,1111122 
SCCF RECON,ioos:station:SCCF:56:1,2017-09-01T06:00:00Z,26.4645,-82.1044,1.728,7.11,1111122 
SCCF RECON,ioos:station:SCCF:56:1,2017-09-01T07:00:00Z,26.4645,-82.1044,1.64,6.77,1111122 
SCCF RECON,ioos:station:SCCF:56:1,2017-09-01T08:00:00Z,26.4645,-82.1044,1.6,6.07,1111122 
SCCF RECON,ioos:station:SCCF:56:1,2017-09-01T09:00:00Z,26.4645,-82.1044,1.63,6.08,1111122 
SCCF RECON,ioos:station:SCCF:56:1,2017-09-01T10:00:00Z,26.4645,-82.1044,1.692,6.21,1111122 
SCCF RECON,ioos:station:SCCF:56:1,2017-09-01T11:00:00Z,26.4645,-82.1044,1.76,6.21,1111122 
SCCF RECON,ioos:station:SCCF:56:1,2017-09-01T12:00:00Z,26.4645,-82.1044,1.87,4.99,1111122 
SCCF RECON,ioos:station:SCCF:56:1,2017-09-01T13:00:00Z,26.4645,-82.1044,1.95,6.3,1111122 
SCCF RECON,ioos:station:SCCF:56:1,2017-09-01T14:00:00Z,26.4645,-82.1044,1.95,6.33,1111122 
SCCF RECON,ioos:station:SCCF:56:1,2017-09-01T15:00:00Z,26.4645,-82.1044,1.889,6.01,1111122 
SCCF RECON,ioos:station:SCCF:56:1,2017-09-01T16:00:00Z,26.4645,-82.1044,1.806,6.34,1111122 
SCCF RECON,ioos:station:SCCF:56:1,2017-09-01T17:00:00Z,26.4645,-82.1044,1.728,6.3,1111122 
SCCF RECON,ioos:station:SCCF:56:1,2017-09-01T18:00:00Z,26.4645,-82.1044,1.64,6.44,1111122 
SCCF RECON,ioos:station:SCCF:56:1,2017-09-01T19:00:00Z,26.4645,-82.1044,1.54,6.16,1111122 
SCCF RECON,ioos:station:SCCF:56:1,2017-09-01T20:00:00Z,26.4645,-82.1044,1.43,6.3,1111122 
SCCF RECON,ioos:station:SCCF:56:1,2017-09-01T21:00:00Z,26.4645,-82.1044,1.329,7.05,1111122 
SCCF RECON,ioos:station:SCCF:56:1,2017-09-01T22:00:00Z,26.4645,-82.1044,1.26,7.69,1111122 
SCCF RECON,ioos:station:SCCF:56:1,2017-09-01T23:00:00Z,26.4645,-82.1044,1.399,7.18,1111122 
SCCF RECON,ioos:station:SCCF:56:1,2017-09-02T00:00:00Z,26.4645,-82.1044,1.528,6.96,1111122 
SCCF RECON,ioos:station:SCCF:56:1,2017-09-02T01:00:00Z,26.4645,-82.1044,1.649,6.53,1111122 
SCCF RECON,ioos:station:SCCF:56:1,2017-09-02T02:00:00Z,26.4645,-82.1044,1.72,6.28,1111122 
SCCF RECON,ioos:station:SCCF:56:1,2017-09-02T03:00:00Z,26.4645,-82.1044,1.8,6.36,1111122 
SCCF RECON,ioos:station:SCCF:56:1,2017-09-02T04:00:00Z,26.4645,-82.1044,1.863,5.88,1111122 
SCCF RECON,ioos:station:SCCF:56:1,2017-09-02T05:00:00Z,26.4645,-82.1044,1.821,5.76,1111122 
SCCF RECON,ioos:station:SCCF:56:1,2017-09-02T06:00:00Z,26.4645,-82.1044,1.72,5.35,1111122 
SCCF RECON,ioos:station:SCCF:56:1,2017-09-02T07:00:00Z,26.4645,-82.1044,1.64,5.06,1111122 
SCCF RECON,ioos:station:SCCF:56:1,2017-09-02T08:00:00Z,26.4645,-82.1044,1.57,4.39,1111122 
SCCF RECON,ioos:station:SCCF:56:1,2017-09-02T09:00:00Z,26.4645,-82.1044,1.52,3.91,1111122 
SCCF RECON,ioos:station:SCCF:56:1,2017-09-02T10:00:00Z,26.4645,-82.1044,1.59,3.85,1111122 
SCCF RECON,ioos:station:SCCF:56:1,2017-09-02T11:00:00Z,26.4645,-82.1044,1.68,3.5,1111122 
SCCF RECON,ioos:station:SCCF:56:1,2017-09-02T12:00:00Z,26.4645,-82.1044,1.74,3.83,1111122 
SCCF RECON,ioos:station:SCCF:56:1,2017-09-02T13:00:00Z,26.4645,-82.1044,1.79,4.4,1111122 
SCCF RECON,ioos:station:SCCF:56:1,2017-09-02T14:00:00Z,26.4645,-82.1044,1.85,4.82,1111122 
SCCF RECON,ioos:station:SCCF:56:1,2017-09-02T15:00:00Z,26.4645,-82.1044,1.93,5.12,1111122 
SCCF RECON,ioos:station:SCCF:56:1,2017-09-02T16:00:00Z,26.4645,-82.1044,1.94,5.31,1111122 
SCCF RECON,ioos:station:SCCF:56:1,2017-09-02T17:00:00Z,26.4645,-82.1044,1.839,5.21,1111122 
SCCF RECON,ioos:station:SCCF:56:1,2017-09-02T18:00:00Z,26.4645,-82.1044,1.71,4.66,1111122 
SCCF RECON,ioos:station:SCCF:56:1,2017-09-02T19:00:00Z,26.4645,-82.1044,1.572,4.9,1111122 
SCCF RECON,ioos:station:SCCF:56:1,2017-09-02T20:00:00Z,26.4645,-82.1044,1.462,4.9,1111122 
SCCF RECON,ioos:station:SCCF:56:1,2017-09-02T21:00:00Z,26.4645,-82.1044,1.36,5.45,1111122 
SCCF RECON,ioos:station:SCCF:56:1,2017-09-02T22:00:00Z,26.4645,-82.1044,1.28,5.78,1111122 
SCCF RECON,ioos:station:SCCF:56:1,2017-09-02T23:00:00Z,26.4645,-82.1044,1.28,5.92,1111122 
SCCF RECON,ioos:station:SCCF:56:1,2017-09-03T00:00:00Z,26.4645,-82.1044,1.34,5.64,1111122 
SCCF RECON,ioos:station:SCCF:56:1,2017-09-03T01:00:00Z,26.4645,-82.1044,1.43,4.74,1111122 
SCCF RECON,ioos:station:SCCF:56:1,2017-09-03T02:00:00Z,26.4645,-82.1044,1.62,6.05,1111122 
SCCF RECON,ioos:station:SCCF:56:1,2017-09-03T03:00:00Z,26.4645,-82.1044,1.741,5.52,1111122 
SCCF RECON,ioos:station:SCCF:56:1,2017-09-03T04:00:00Z,26.4645,-82.1044,1.77,5.39,1111122 
SCCF RECON,ioos:station:SCCF:56:1,2017-09-03T05:00:00Z,26.4645,-82.1044,1.77,5.11,1111122 
SCCF RECON,ioos:station:SCCF:56:1,2017-09-03T06:00:00Z,26.4645,-82.1044,1.76,4.95,1111122 
SCCF RECON,ioos:station:SCCF:56:1,2017-09-03T07:00:00Z,26.4645,-82.1044,1.67,4.74,1111122 
SCCF RECON,ioos:station:SCCF:56:1,2017-09-03T08:00:00Z,26.4645,-82.1044,1.59,4.04,1111122 
SCCF RECON,ioos:station:SCCF:56:1,2017-09-03T09:00:00Z,26.4645,-82.1044,1.54,3.78,1111122 
SCCF RECON,ioos:station:SCCF:56:1,2017-09-03T10:00:00Z,26.4645,-82.1044,1.54,3.32,1111122 
SCCF RECON,ioos:station:SCCF:56:1,2017-09-03T11:00:00Z,26.4645,-82.1044,1.59,3.49,1111122 
SCCF RECON,ioos:station:SCCF:56:1,2017-09-03T12:00:00Z,26.4645,-82.1044,1.67,4.84,1111122 
SCCF RECON,ioos:station:SCCF:56:1,2017-09-03T13:00:00Z,26.4645,-82.1044,1.789,3.64,1111122 
SCCF RECON,ioos:station:SCCF:56:1,2017-09-03T14:00:00Z,26.4645,-82.1044,1.88,3.85,1111122 
SCCF RECON,ioos:station:SCCF:56:1,2017-09-03T15:00:00Z,26.4645,-82.1044,1.95,4.44,1111122 
SCCF RECON,ioos:station:SCCF:56:1,2017-09-03T16:00:00Z,26.4645,-82.1044,1.959,4.8,1111122 
SCCF RECON,ioos:station:SCCF:56:1,2017-09-03T17:00:00Z,26.4645,-82.1044,1.896,4.16,1111122 
SCCF RECON,ioos:station:SCCF:56:1,2017-09-03T18:00:00Z,26.4645,-82.1044,1.76,4.18,1111122 
SCCF RECON,ioos:station:SCCF:56:1,2017-09-03T19:00:00Z,26.4645,-82.1044,1.623,3.97,1111122 
SCCF RECON,ioos:station:SCCF:56:1,2017-09-03T20:00:00Z,26.4645,-82.1044,1.489,3.59,1111122 
SCCF RECON,ioos:station:SCCF:56:1,2017-09-03T21:00:00Z,26.4645,-82.1044,1.351,4.01,1111122 
SCCF RECON,ioos:station:SCCF:56:1,2017-09-03T22:00:00Z,26.4645,-82.1044,1.25,4.55,1111122 
SCCF RECON,ioos:station:SCCF:56:1,2017-09-03T23:00:00Z,26.4645,-82.1044,1.18,4.69,1111122 
SCCF RECON,ioos:station:SCCF:56:1,2017-09-04T00:00:00Z,26.4645,-82.1044,1.21,4.56,1111122 
SCCF RECON,ioos:station:SCCF:56:1,2017-09-04T01:00:00Z,26.4645,-82.1044,1.35,4.05,1111122 
SCCF RECON,ioos:station:SCCF:56:1,2017-09-04T02:00:00Z,26.4645,-82.1044,1.544,4.2,1111122 
SCCF RECON,ioos:station:SCCF:56:1,2017-09-04T03:00:00Z,26.4645,-82.1044,1.67,4.83,1111122 
SCCF RECON,ioos:station:SCCF:56:1,2017-09-04T04:00:00Z,26.4645,-82.1044,1.76,4.19,1111122 
SCCF RECON,ioos:station:SCCF:56:1,2017-09-04T05:00:00Z,26.4645,-82.1044,1.83,3.91,1111122 
SCCF RECON,ioos:station:SCCF:56:1,2017-09-04T06:00:00Z,26.4645,-82.1044,1.79,3.84,1111122 
SCCF RECON,ioos:station:SCCF:56:1,2017-09-04T07:00:00Z,26.4645,-82.1044,1.72,3.99,1111122 
SCCF RECON,ioos:station:SCCF:56:1,2017-09-04T08:00:00Z,26.4645,-82.1044,1.63,3.78,1111122 
SCCF RECON,ioos:station:SCCF:56:1,2017-09-04T09:00:00Z,26.4645,-82.1044,1.572,3.52,1111122 
SCCF RECON,ioos:station:SCCF:56:1,2017-09-04T10:00:00Z,26.4645,-82.1044,1.54,3.15,1111122 
SCCF RECON,ioos:station:SCCF:56:1,2017-09-04T11:00:00Z,26.4645,-82.1044,1.54,2.83,1111122 
SCCF RECON,ioos:station:SCCF:56:1,2017-09-04T12:00:00Z,26.4645,-82.1044,1.61,2.56,1111122 
SCCF RECON,ioos:station:SCCF:56:1,2017-09-04T13:00:00Z,26.4645,-82.1044,1.732,3.94,1111122 
SCCF RECON,ioos:station:SCCF:56:1,2017-09-04T14:00:00Z,26.4645,-82.1044,1.87,4.28,1111122 
SCCF RECON,ioos:station:SCCF:56:1,2017-09-04T15:00:00Z,26.4645,-82.1044,1.968,4.99,1111122 
SCCF RECON,ioos:station:SCCF:56:1,2017-09-04T16:00:00Z,26.4645,-82.1044,2.02,5.26,1111122 
SCCF RECON,ioos:station:SCCF:56:1,2017-09-04T17:00:00Z,26.4645,-82.1044,2.01,5.28,1111122 
SCCF RECON,ioos:station:SCCF:56:1,2017-09-04T18:00:00Z,26.4645,-82.1044,1.93,4.93,1111122 
SCCF RECON,ioos:station:SCCF:56:1,2017-09-04T19:00:00Z,26.4645,-82.1044,1.77,4.89,1111122 
SCCF RECON,ioos:station:SCCF:56:1,2017-09-04T20:00:00Z,26.4645,-82.1044,1.601,4.36,1111122 
SCCF RECON,ioos:station:SCCF:56:1,2017-09-04T21:00:00Z,26.4645,-82.1044,1.46,4.55,1111122 
SCCF RECON,ioos:station:SCCF:56:1,2017-09-04T22:00:00Z,26.4645,-82.1044,1.34,4.85,1111122 
SCCF RECON,ioos:station:SCCF:56:1,2017-09-04T23:00:00Z,26.4645,-82.1044,1.26,5.29,1111122 
SCCF RECON,ioos:station:SCCF:56:1,2017-09-05T00:00:00Z,26.4645,-82.1044,1.22,5.29,1111122 
SCCF RECON,ioos:station:SCCF:56:1,2017-09-05T01:00:00Z,26.4645,-82.1044,1.35,4.55,1111122 
SCCF RECON,ioos:station:SCCF:56:1,2017-09-05T02:00:00Z,26.4645,-82.1044,1.49,4.21,1111122 
SCCF RECON,ioos:station:SCCF:56:1,2017-09-05T03:00:00Z,26.4645,-82.1044,1.63,5.16,1111122 
SCCF RECON,ioos:station:SCCF:56:1,2017-09-05T04:00:00Z,26.4645,-82.1044,1.74,5.07,1111122 
SCCF RECON,ioos:station:SCCF:56:1,2017-09-05T05:00:00Z,26.4645,-82.1044,1.809,4.84,1111122 
SCCF RECON,ioos:station:SCCF:56:1,2017-09-05T06:00:00Z,26.4645,-82.1044,1.84,4.67,1111122 
SCCF RECON,ioos:station:SCCF:56:1,2017-09-05T07:00:00Z,26.4645,-82.1044,1.79,4.65,1111122 
SCCF RECON,ioos:station:SCCF:56:1,2017-09-05T08:00:00Z,26.4645,-82.1044,1.71,4.29,1111122 
SCCF RECON,ioos:station:SCCF:56:1,2017-09-05T09:00:00Z,26.4645,-82.1044,1.61,3.87,1111122 
SCCF RECON,ioos:station:SCCF:56:1,2017-09-05T10:00:00Z,26.4645,-82.1044,1.549,3.42,1111122 
SCCF RECON,ioos:station:SCCF:56:1,2017-09-05T11:00:00Z,26.4645,-82.1044,1.477,2.73,1111122 
SCCF RECON,ioos:station:SCCF:56:1,2017-09-05T12:00:00Z,26.4645,-82.1044,1.49,2.49,1111122 
SCCF RECON,ioos:station:SCCF:56:1,2017-09-05T13:00:00Z,26.4645,-82.1044,1.636,2.89,1111122 
SCCF RECON,ioos:station:SCCF:56:1,2017-09-05T14:00:00Z,26.4645,-82.1044,1.81,3.81,1111122 
SCCF RECON,ioos:station:SCCF:56:1,2017-09-05T15:00:00Z,26.4645,-82.1044,1.95,4.62,1111122 
SCCF RECON,ioos:station:SCCF:56:1,2017-09-05T16:00:00Z,26.4645,-82.1044,2.04,5.0,1111122 
SCCF RECON,ioos:station:SCCF:56:1,2017-09-05T17:00:00Z,26.4645,-82.1044,2.08,5.71,1111122 
SCCF RECON,ioos:station:SCCF:56:1,2017-09-05T18:00:00Z,26.4645,-82.1044,2.02,5.18,1111122 
SCCF RECON,ioos:station:SCCF:56:1,2017-09-05T19:00:00Z,26.4645,-82.1044,1.9,5.24,1111122 
SCCF RECON,ioos:station:SCCF:56:1,2017-09-05T20:00:00Z,26.4645,-82.1044,1.76,4.93,1111122 
SCCF RECON,ioos:station:SCCF:56:1,2017-09-05T21:00:00Z,26.4645,-82.1044,1.6,4.57,1111122 
SCCF RECON,ioos:station:SCCF:56:1,2017-09-05T22:00:00Z,26.4645,-82.1044,1.46,4.87,1111122 
SCCF RECON,ioos:station:SCCF:56:1,2017-09-05T23:00:00Z,26.4645,-82.1044,1.4,5.17,1111122 
SCCF RECON,ioos:station:SCCF:56:1,2017-09-06T00:00:00Z,26.4645,-82.1044,1.273,4.85,1111122 
SCCF RECON,ioos:station:SCCF:56:1,2017-09-06T01:00:00Z,26.4645,-82.1044,1.29,4.44,1111122 
SCCF RECON,ioos:station:SCCF:56:1,2017-09-06T02:00:00Z,26.4645,-82.1044,1.46,3.64,1111122 
SCCF RECON,ioos:station:SCCF:56:1,2017-09-06T03:00:00Z,26.4645,-82.1044,1.65,3.9,1111122 
SCCF RECON,ioos:station:SCCF:56:1,2017-09-06T04:00:00Z,26.4645,-82.1044,1.748,4.63,1111122 
SCCF RECON,ioos:station:SCCF:56:1,2017-09-06T05:00:00Z,26.4645,-82.1044,1.869,4.49,1111122 
SCCF RECON,ioos:station:SCCF:56:1,2017-09-06T06:00:00Z,26.4645,-82.1044,1.92,4.36,1111122 
SCCF RECON,ioos:station:SCCF:56:1,2017-09-06T07:00:00Z,26.4645,-82.1044,1.84,3.71,1111122 
SCCF RECON,ioos:station:SCCF:56:1,2017-09-06T08:00:00Z,26.4645,-82.1044,1.81,3.66,1111122 
SCCF RECON,ioos:station:SCCF:56:1,2017-09-06T09:00:00Z,26.4645,-82.1044,1.67,3.77,1111122 
SCCF RECON,ioos:station:SCCF:56:1,2017-09-06T10:00:00Z,26.4645,-82.1044,1.562,3.25,1111122 
SCCF RECON,ioos:station:SCCF:56:1,2017-09-06T11:00:00Z,26.4645,-82.1044,1.482,2.6,1111122 
SCCF RECON,ioos:station:SCCF:56:1,2017-09-06T12:00:00Z,26.4645,-82.1044,1.48,2.36,1111122 
SCCF RECON,ioos:station:SCCF:56:1,2017-09-06T13:00:00Z,26.4645,-82.1044,1.57,2.69,1111122 
SCCF RECON,ioos:station:SCCF:56:1,2017-09-06T14:00:00Z,26.4645,-82.1044,1.73,3.55,1111122 
SCCF RECON,ioos:station:SCCF:56:1,2017-09-06T15:00:00Z,26.4645,-82.1044,1.89,4.03,1111122 
SCCF RECON,ioos:station:SCCF:56:1,2017-09-06T16:00:00Z,26.4645,-82.1044,2.01,4.58,1111122 
SCCF RECON,ioos:station:SCCF:56:1,2017-09-06T17:00:00Z,26.4645,-82.1044,2.1,4.79,1111122 
SCCF RECON,ioos:station:SCCF:56:1,2017-09-06T18:00:00Z,26.4645,-82.1044,2.13,5.18,1111122 
SCCF RECON,ioos:station:SCCF:56:1,2017-09-06T19:00:00Z,26.4645,-82.1044,2.055,4.76,1111122 
SCCF RECON,ioos:station:SCCF:56:1,2017-09-06T20:00:00Z,26.4645,-82.1044,1.906,5.21,1111122 
SCCF RECON,ioos:station:SCCF:56:1,2017-09-06T21:00:00Z,26.4645,-82.1044,1.758,4.86,1111122 
SCCF RECON,ioos:station:SCCF:56:1,2017-09-06T22:00:00Z,26.4645,-82.1044,1.61,4.53,1111122 
SCCF RECON,ioos:station:SCCF:56:1,2017-09-06T23:00:00Z,26.4645,-82.1044,1.49,4.28,1111122 
SCCF RECON,ioos:station:SCCF:56:1,2017-09-07T00:00:00Z,26.4645,-82.1044,1.38,3.91,1111122 
SCCF RECON,ioos:station:SCCF:56:1,2017-09-07T01:00:00Z,26.4645,-82.1044,1.33,3.54,1111122 
SCCF RECON,ioos:station:SCCF:56:1,2017-09-07T02:00:00Z,26.4645,-82.1044,1.436,3.67,1111122 
SCCF RECON,ioos:station:SCCF:56:1,2017-09-07T03:00:00Z,26.4645,-82.1044,1.617,4.01,1111122 
SCCF RECON,ioos:station:SCCF:56:1,2017-09-07T04:00:00Z,26.4645,-82.1044,1.76,4.38,1111122 
SCCF RECON,ioos:station:SCCF:56:1,2017-09-07T05:00:00Z,26.4645,-82.1044,1.867,4.39,1111122 
SCCF RECON,ioos:station:SCCF:56:1,2017-09-07T06:00:00Z,26.4645,-82.1044,1.92,4.41,1111122 
SCCF RECON,ioos:station:SCCF:56:1,2017-09-07T07:00:00Z,26.4645,-82.1044,1.95,4.16,1111122 
SCCF RECON,ioos:station:SCCF:56:1,2017-09-07T08:00:00Z,26.4645,-82.1044,1.86,3.61,1111122 
SCCF RECON,ioos:station:SCCF:56:1,2017-09-07T09:00:00Z,26.4645,-82.1044,1.71,3.36,1111122 
SCCF RECON,ioos:station:SCCF:56:1,2017-09-07T10:00:00Z,26.4645,-82.1044,1.59,2.77,1111122 
SCCF RECON,ioos:station:SCCF:56:1,2017-09-07T11:00:00Z,26.4645,-82.1044,1.48,2.19,1111122 
SCCF RECON,ioos:station:SCCF:56:1,2017-09-07T12:00:00Z,26.4645,-82.1044,1.381,1.77,1111122 
SCCF RECON,ioos:station:SCCF:56:1,2017-09-07T13:00:00Z,26.4645,-82.1044,1.341,1.59,1111122 
SCCF RECON,ioos:station:SCCF:56:1,2017-09-07T14:00:00Z,26.4645,-82.1044,1.456,2.45,1111122 
SCCF RECON,ioos:station:SCCF:56:1,2017-09-07T15:00:00Z,26.4645,-82.1044,1.683,3.64,1111122 
SCCF RECON,ioos:station:SCCF:56:1,2017-09-07T16:00:00Z,26.4645,-82.1044,1.86,4.66,1111122 
SCCF RECON,ioos:station:SCCF:56:1,2017-09-07T17:00:00Z,26.4645,-82.1044,1.968,5.39,1111122 
SCCF RECON,ioos:station:SCCF:56:1,2017-09-07T18:00:00Z,26.4645,-82.1044,2.04,5.6,1111122 
SCCF RECON,ioos:station:SCCF:56:1,2017-09-07T19:00:00Z,26.4645,-82.1044,2.02,5.73,1111122 
SCCF RECON,ioos:station:SCCF:56:1,2017-09-07T20:00:00Z,26.4645,-82.1044,1.923,5.32,1111122 
SCCF RECON,ioos:station:SCCF:56:1,2017-09-07T21:00:00Z,26.4645,-82.1044,1.78,5.26,1111122 
SCCF RECON,ioos:station:SCCF:56:1,2017-09-07T22:00:00Z,26.4645,-82.1044,1.64,4.82,1111122 
SCCF RECON,ioos:station:SCCF:56:1,2017-09-07T23:00:00Z,26.4645,-82.1044,1.537,4.47,1111122 
SCCF RECON,ioos:station:SCCF:56:1,2017-09-08T00:00:00Z,26.4645,-82.1044,1.45,4.02,1111122 
SCCF RECON,ioos:station:SCCF:56:1,2017-09-08T01:00:00Z,26.4645,-82.1044,1.377,3.85,1111122 
SCCF RECON,ioos:station:SCCF:56:1,2017-09-08T02:00:00Z,26.4645,-82.1044,1.361,4.11,1111122 
SCCF RECON,ioos:station:SCCF:56:1,2017-09-08T03:00:00Z,26.4645,-82.1044,1.47,3.72,1111122 
SCCF RECON,ioos:station:SCCF:56:1,2017-09-08T04:00:00Z,26.4645,-82.1044,1.634,3.4,1111122 
SCCF RECON,ioos:station:SCCF:56:1,2017-09-08T05:00:00Z,26.4645,-82.1044,1.779,3.75,1111122 
SCCF RECON,ioos:station:SCCF:56:1,2017-09-08T06:00:00Z,26.4645,-82.1044,1.86,4.63,1111122 
SCCF RECON,ioos:station:SCCF:56:1,2017-09-08T07:00:00Z,26.4645,-82.1044,1.899,4.05,1111122 
SCCF RECON,ioos:station:SCCF:56:1,2017-09-08T08:00:00Z,26.4645,-82.1044,1.872,4.65,1111122 
SCCF RECON,ioos:station:SCCF:56:1,2017-09-08T09:00:00Z,26.4645,-82.1044,1.74,4.02,1111122 
SCCF RECON,ioos:station:SCCF:56:1,2017-09-08T10:00:00Z,26.4645,-82.1044,1.65,3.4,1111122 
SCCF RECON,ioos:station:SCCF:56:1,2017-09-08T11:00:00Z,26.4645,-82.1044,1.519,2.73,1111122 
SCCF RECON,ioos:station:SCCF:56:1,2017-09-08T12:00:00Z,26.4645,-82.1044,1.39,2.31,1111122 
SCCF RECON,ioos:station:SCCF:56:1,2017-09-08T13:00:00Z,26.4645,-82.1044,1.306,1.92,1111122 
SCCF RECON,ioos:station:SCCF:56:1,2017-09-08T14:00:00Z,26.4645,-82.1044,1.31,1.92,1111122 
SCCF RECON,ioos:station:SCCF:56:1,2017-09-08T15:00:00Z,26.4645,-82.1044,1.456,4.33,1111122 
SCCF RECON,ioos:station:SCCF:56:1,2017-09-08T16:00:00Z,26.4645,-82.1044,1.65,5.59,1111122 
SCCF RECON,ioos:station:SCCF:56:1,2017-09-08T17:00:00Z,26.4645,-82.1044,1.788,5.8,1111122 
SCCF RECON,ioos:station:SCCF:56:1,2017-09-08T18:00:00Z,26.4645,-82.1044,1.882,5.93,1111122 
SCCF RECON,ioos:station:SCCF:56:1,2017-09-08T19:00:00Z,26.4645,-82.1044,1.931,5.72,1111122 
SCCF RECON,ioos:station:SCCF:56:1,2017-09-08T20:00:00Z,26.4645,-82.1044,1.915,6.22,1111122 
SCCF RECON,ioos:station:SCCF:56:1,2017-09-08T21:00:00Z,26.4645,-82.1044,1.796,5.19,1111122 
SCCF RECON,ioos:station:SCCF:56:1,2017-09-08T22:00:00Z,26.4645,-82.1044,1.64,4.61,1111122 
SCCF RECON,ioos:station:SCCF:56:1,2017-09-08T23:00:00Z,26.4645,-82.1044,1.51,4.02,1111122 
SCCF RECON,ioos:station:SCCF:56:1,2017-09-09T00:00:00Z,26.4645,-82.1044,1.39,3.72,1111122 
SCCF RECON,ioos:station:SCCF:56:1,2017-09-09T01:00:00Z,26.4645,-82.1044,1.302,3.6,1111122 
SCCF RECON,ioos:station:SCCF:56:1,2017-09-09T02:00:00Z,26.4645,-82.1044,1.221,3.3,1111122 
SCCF RECON,ioos:station:SCCF:56:1,2017-09-09T03:00:00Z,26.4645,-82.1044,1.25,3.12,1111122 
SCCF RECON,ioos:station:SCCF:56:1,2017-09-09T04:00:00Z,26.4645,-82.1044,1.373,4.39,1111122 
SCCF RECON,ioos:station:SCCF:56:1,2017-09-09T05:00:00Z,26.4645,-82.1044,1.548,4.34,1111122 
SCCF RECON,ioos:station:SCCF:56:1,2017-09-09T06:00:00Z,26.4645,-82.1044,1.689,4.18,1111122 
SCCF RECON,ioos:station:SCCF:56:1,2017-09-09T07:00:00Z,26.4645,-82.1044,1.766,4.26,1111122 
SCCF RECON,ioos:station:SCCF:56:1,2017-09-09T08:00:00Z,26.4645,-82.1044,1.791,4.16,1111122 
SCCF RECON,ioos:station:SCCF:56:1,2017-09-09T09:00:00Z,26.4645,-82.1044,1.7,3.87,1111122 
SCCF RECON,ioos:station:SCCF:56:1,2017-09-09T10:00:00Z,26.4645,-82.1044,1.56,3.44,1111122 
SCCF RECON,ioos:station:SCCF:56:1,2017-09-09T11:00:00Z,26.4645,-82.1044,1.43,2.94,1111122 
SCCF RECON,ioos:station:SCCF:56:1,2017-09-09T12:00:00Z,26.4645,-82.1044,1.309,2.5,1111122 
SCCF RECON,ioos:station:SCCF:56:1,2017-09-09T13:00:00Z,26.4645,-82.1044,1.216,2.3,1111122 
SCCF RECON,ioos:station:SCCF:56:1,2017-09-09T14:00:00Z,26.4645,-82.1044,1.149,2.21,1111122 
SCCF RECON,ioos:station:SCCF:56:1,2017-09-09T15:00:00Z,26.4645,-82.1044,1.188,2.52,1111122 
SCCF RECON,ioos:station:SCCF:56:1,2017-09-09T16:00:00Z,26.4645,-82.1044,1.369,5.73,1111122 
SCCF RECON,ioos:station:SCCF:56:1,2017-09-09T17:00:00Z,26.4645,-82.1044,1.514,4.74,1111122 
SCCF RECON,ioos:station:SCCF:56:1,2017-09-09T18:00:00Z,26.4645,-82.1044,1.59,5.57,1111122 
SCCF RECON,ioos:station:SCCF:56:1,2017-09-09T19:00:00Z,26.4645,-82.1044,1.67,5.47,1111122 
SCCF RECON,ioos:station:SCCF:56:1,2017-09-09T20:00:00Z,26.4645,-82.1044,1.68,5.78,1111122 
SCCF RECON,ioos:station:SCCF:56:1,2017-09-09T21:00:00Z,26.4645,-82.1044,1.68,5.64,1111122 
SCCF RECON,ioos:station:SCCF:56:1,2017-09-09T22:00:00Z,26.4645,-82.1044,1.586,5.66,1111122 
SCCF RECON,ioos:station:SCCF:56:1,2017-09-09T23:00:00Z,26.4645,-82.1044,1.45,5.26,1111122 
SCCF RECON,ioos:station:SCCF:56:1,2017-09-10T00:00:00Z,26.4645,-82.1044,1.305,4.74,1111122 
SCCF RECON,ioos:station:SCCF:56:1,2017-09-10T01:00:00Z,26.4645,-82.1044,1.205,4.24,1111122 
SCCF RECON,ioos:station:SCCF:56:1,2017-09-10T02:00:00Z,26.4645,-82.1044,1.129,3.99,1111122 
SCCF RECON,ioos:station:SCCF:56:1,2017-09-10T03:00:00Z,26.4645,-82.1044,1.036,3.98,1111122 
SCCF RECON,ioos:station:SCCF:56:1,2017-09-10T04:00:00Z,26.4645,-82.1044,0.976,4.13,1111122 
SCCF RECON,ioos:station:SCCF:56:1,2017-09-10T05:00:00Z,26.4645,-82.1044,0.979,4.58,1111122 
SCCF RECON,ioos:station:SCCF:56:1,2017-09-10T06:00:00Z,26.4645,-82.1044,1.036,4.55,1111122 
SCCF RECON,ioos:station:SCCF:56:1,2017-09-10T07:00:00Z,26.4645,-82.1044,1.164,4.92,1111122 
SCCF RECON,ioos:station:SCCF:56:1,2017-09-10T08:00:00Z,26.4645,-82.1044,1.194,4.96,1111122 
SCCF RECON,ioos:station:SCCF:56:1,2017-09-10T09:00:00Z,26.4645,-82.1044,1.122,4.89,1111122 
SCCF RECON,ioos:station:SCCF:56:1,2017-09-10T10:00:00Z,26.4645,-82.1044,0.987,4.51,1111122 
SCCF RECON,ioos:station:SCCF:56:1,2017-09-10T11:00:00Z,26.4645,-82.1044,0.879,4.01,1111122 
SCCF RECON,ioos:station:SCCF:56:1,2017-09-10T12:00:00Z,26.4645,-82.1044,0.695,3.63,1111122 
SCCF RECON,ioos:station:SCCF:56:1,2017-09-10T13:00:00Z,26.4645,-82.1044,0.585,3.77,1111122 
SCCF RECON,ioos:station:SCCF:56:1,2017-09-10T14:00:00Z,26.4645,-82.1044,0.516,4.34,1111122 
SCCF RECON,ioos:station:SCCF:56:1,2017-09-10T15:00:00Z,26.4645,-82.1044,0.461,4.81,1111122 
SCCF RECON,ioos:station:SCCF:56:1,2017-09-10T16:00:00Z,26.4645,-82.1044,0.413,5.02,1111122 
SCCF RECON,ioos:station:SCCF:56:1,2017-09-10T17:00:00Z,26.4645,-82.1044,0.385,5.23,1111122 
SCCF RECON,ioos:station:SCCF:56:1,2017-09-10T18:00:00Z,26.4645,-82.1044,0.363,5.56,1111122 
SCCF RECON,ioos:station:SCCF:56:1,2017-09-10T19:00:00Z,26.4645,-82.1044,0.433,5.78,1111122 
SCCF RECON,ioos:station:SCCF:56:1,2017-09-10T20:00:00Z,26.4645,-82.1044,0.42,5.71,1111122 
SCCF RECON,ioos:station:SCCF:56:1,2017-09-10T21:00:00Z,26.4645,-82.1044,0.457,5.82,1111122 
SCCF RECON,ioos:station:SCCF:56:1,2017-09-10T22:00:00Z,26.4645,-82.1044,0.428,5.71,1111122 
SCCF RECON,ioos:station:SCCF:56:1,2017-09-10T23:00:00Z,26.4645,-82.1044,0.463,5.57,1111122 
SCCF RECON,ioos:station:SCCF:56:1,2017-09-11T00:00:00Z,26.4645,-82.1044,1.125,5.53,1111122 
SCCF RECON,ioos:station:SCCF:56:1,2017-09-11T01:00:00Z,26.4645,-82.1044,1.492,5.3,1111122 
SCCF RECON,ioos:station:SCCF:56:1,2017-09-11T02:00:00Z,26.4645,-82.1044,1.66,5.33,1111122 
SCCF RECON,ioos:station:SCCF:56:1,2017-09-11T03:00:00Z,26.4645,-82.1044,1.839,5.32,1111122 
SCCF RECON,ioos:station:SCCF:56:1,2017-09-11T04:00:00Z,26.4645,-82.1044,1.959,5.52,1111122 
SCCF RECON,ioos:station:SCCF:56:1,2017-09-11T05:00:00Z,26.4645,-82.1044,2.073,5.62,1111122 
SCCF RECON,ioos:station:SCCF:56:1,2017-09-11T06:00:00Z,26.4645,-82.1044,2.074,5.1,1111122 
SCCF RECON,ioos:station:SCCF:56:1,2017-09-11T07:00:00Z,26.4645,-82.1044,2.131,5.24,1111122 
SCCF RECON,ioos:station:SCCF:56:1,2017-09-11T08:00:00Z,26.4645,-82.1044,2.091,5.22,1111122 
SCCF RECON,ioos:station:SCCF:56:1,2017-09-11T09:00:00Z,26.4645,-82.1044,2.0,5.23,1111122 
SCCF RECON,ioos:station:SCCF:56:1,2017-09-11T10:00:00Z,26.4645,-82.1044,2.01,4.97,1111122 
SCCF RECON,ioos:station:SCCF:56:1,2017-09-11T11:00:00Z,26.4645,-82.1044,2.05,4.96,1111122 
SCCF RECON,ioos:station:SCCF:56:1,2017-09-11T12:00:00Z,26.4645,-82.1044,1.98,4.9,1111122 
SCCF RECON,ioos:station:SCCF:56:1,2017-09-11T13:00:00Z,26.4645,-82.1044,1.89,4.7,1111122 
SCCF RECON,ioos:station:SCCF:56:1,2017-09-11T14:00:00Z,26.4645,-82.1044,1.81,4.29,1111122 
SCCF RECON,ioos:station:SCCF:56:1,2017-09-11T15:00:00Z,26.4645,-82.1044,1.717,3.9,1111122 
SCCF RECON,ioos:station:SCCF:56:1,2017-09-11T16:00:00Z,26.4645,-82.1044,1.658,3.96,1111122 
SCCF RECON,ioos:station:SCCF:56:1,2017-09-11T17:00:00Z,26.4645,-82.1044,1.747,4.58,1111122 
SCCF RECON,ioos:station:SCCF:56:1,2017-09-11T18:00:00Z,26.4645,-82.1044,1.87,5.96,1111122 
SCCF RECON,ioos:station:SCCF:56:1,2017-09-11T19:00:00Z,26.4645,-82.1044,1.93,6.03,1111122 
SCCF RECON,ioos:station:SCCF:56:1,2017-09-11T20:00:00Z,26.4645,-82.1044,1.985,6.26,1111122 